Regional Weather Roundup
Issued by NWS

Home | Current Version | Previous Version | Graphics & Text | Print | Product List | Glossary On
Versions: 1 2 3 4 5 6 7 8 9 10 11 12 13 14 15 16 17 18 19 20 21 22 23 24 25 26 27
000
ASUS45 KSLC 191510
RWRUT

UTAH REGIONAL WEATHER ROUNDUP
NATIONAL WEATHER SERVICE SALT LAKE CITY UT
800 AM MST FRI JAN 19 2018

UTZ001>011-023>025-191600-

NORTHERN UTAH

CITY           SKY/WX    TMP DP  RH WIND       PRES   REMARKS
BRIGHAM CITY   CLOUDY    44  31  60 CALM      29.80S
HILL AFB       CLOUDY    46  29  51 S10       29.79S
LOGAN          CLOUDY    48  30  49 N7        29.78S
OGDEN          CLOUDY    43  30  60 CALM      29.79S
SALT LAKE CITY CLOUDY    57  29  34 S17G26    29.78S
TOOELE VALLEY  CLOUDY    54  32  43 S24G30    29.78R
WENDOVER       MOCLDY    34  28  79 NE5       29.79S WCI  30
HEBER CITY       N/A     50  27  40 SW15G23   29.84S
WEST JORDAN    CLOUDY    52  31  43 SE23G30   29.79S

$$

UTZ011>015-024>027-191600-

CENTRAL/NORTHEAST UTAH

CITY           SKY/WX    TMP DP  RH WIND       PRES   REMARKS
PROVO AIRPORT  CLOUDY    51  29  42 VRB6G16   29.85F
MOAB/CANYONLAN CLOUDY    26  22  84 CALM      30.02S
DELTA          CLOUDY    43  28  56 S14       29.87S
PRICE          CLOUDY    24  18  77 CALM      30.01S
RICHFIELD      CLEAR     52  25  35 SW18G28   29.90F
ROOSEVELT      MOCLDY    21  18  86 CALM      30.01F
VERNAL         MOCLDY    21  15  78 W6        29.98S WCI  13

$$

UTZ013>016-019>022-027-191600-

SOUTHERN UTAH

CITY           SKY/WX    TMP DP  RH WIND       PRES   REMARKS
BRYCE CANYON   MOCLDY    24  21  88 CALM      30.07S
CEDAR CITY     CLOUDY    45  26  47 SW18      29.94S
MILFORD        MOCLDY    41  28  60 S14       29.90S
ST GEORGE      CLOUDY    39  33  79 CALM      30.00S
HANKSVILLE     CLOUDY    27  16  63 CALM      30.05S
KANAB          CLEAR     27  23  86 N3        30.10S
BLANDING         N/A     28  19  70 CALM      30.18S

$$

REGIONAL REPORTS     COLORADO/ARIZONA

CITY           SKY/WX    TMP DP  RH WIND       PRES   REMARKS
CRAIG, CO      MOCLDY    20  13  74 CALM      29.97S
GRAND JUNCTION PTCLDY    27  19  72 CALM      30.03S
RIFLE, CO      CLEAR     20  16  84 CALM      30.06S
MONTROSE, CO   PTCLDY    21  15  78 SE6       30.06F WCI  13
CORTEZ, CO     MOCLDY    21  17  84 NE3       30.12S
COLORADO CITY    N/A     32  28  86 CALM      30.07S
PAGE, AZ       MOCLDY    35  24  64 W5        30.06S WCI  31
GRAND CANYON   PTCLDY    20  17  88 CALM      30.12S
KINGMAN, AZ    CLEAR    N/A N/A N/A SE10      30.03R
FLAGSTAFF, AZ  CLEAR     24  17  74 CALM      30.14S

$$

REGIONAL REPORTS    NEVADA/IDAHO/WYOMING

CITY           SKY/WX    TMP DP  RH WIND       PRES   REMARKS
LAS VEGAS, NV  MOCLDY    49  37  63 W6        29.93R
ELY, NY        CLOUDY    41  28  60 S13       29.87R
ELKO, NV       MIX PCPN  35  33  92 SW8       29.86R WCI  29
POCATELLO, ID  LGT RAIN  38  35  89 SW13      29.83S WCI  30
BURLEY, ID     LGT RAIN  37  34  89 SW7       29.83R WCI  32
FORT BRIDGER,    N/A     40  28  61 SW8       29.83S WCI  35
EVANSTON, WY   CLOUDY    41  28  60 SW21      29.81S
ROCK SPRINGS,  PTCLDY    32  19  58 SE13      29.81S WCI  22

$$




USA.gov is the U.S. government's official web portal to all federal, state and local government web resources and services.